When you browse on this site, cookies collect data to enhance your experience and personalize the content and advertising you see.
Visit our Privacy Policy to learn more. By continuing to use the site, you agree to this use of cookies and data.
  • Em Portugal
  • Lista de países
  • Para 7 dias
  • Temperatura da água
  • Mapas de satélite
  • Mapa do tempo
  • Widgets de tempo
  • user-avatar
    Iniciar Sessão

    Previsão horária em Wolnosc

    Hoje, 20 Julho, Sábado

    Tempo Temperatura Precipitação Vento Pressão Humidade
    00:00 +16°C° 0 mm 1 m/s 748 mmHg 87%
    01:00 +16°C° 0 mm 1 m/s 748 mmHg 87%
    02:00 +16°C° 0.2 mm 1 m/s 748 mmHg 88%
    03:00 +16°C° 0.2 mm 1 m/s 748 mmHg 88%
    04:00 +16°C° 0.2 mm 1 m/s 748 mmHg 88%
    05:00 +19°C° 0 mm 1 m/s 748 mmHg 81%
    06:00 +20°C° 0 mm 1 m/s 749 mmHg 75%
    07:00 +20°C° 0 mm 0 m/s 749 mmHg 66%
    08:00 +22°C° 0 mm 0 m/s 749 mmHg 59%
    09:00 +26°C° 0 mm 1 m/s 749 mmHg 53%
    10:00 +28°C° 0 mm 1 m/s 749 mmHg 46%
    11:00 +28°C° 0 mm 1 m/s 749 mmHg 45%
    12:00 +28°C° 0 mm 2 m/s 749 mmHg 43%
    13:00 +29°C° 0 mm 2 m/s 749 mmHg 42%
    14:00 +29°C° 0 mm 2 m/s 749 mmHg 44%
    15:00 +28°C° 0 mm 2 m/s 749 mmHg 45%
    16:00 +28°C° 0 mm 2 m/s 749 mmHg 46%
    17:00 +27°C° 0 mm 2 m/s 749 mmHg 53%
    18:00 +26°C° 0 mm 2 m/s 749 mmHg 59%
    19:00 +24°C° 0 mm 2 m/s 748 mmHg 65%
    20:00 +23°C° 0 mm 2 m/s 748 mmHg 68%
    21:00 +21°C° 0 mm 2 m/s 748 mmHg 71%
    22:00 +20°C° 0 mm 2 m/s 748 mmHg 73%
    23:00 +20°C° 0 mm 2 m/s 748 mmHg 74%

    Amanhã, 21 Julho, Domingo

    Tempo Temperatura Precipitação Vento Pressão Humidade
    00:00 +19°C° 0 mm 2 m/s 748 mmHg 74%
    01:00 +19°C° 0 mm 3 m/s 748 mmHg 75%
    02:00 +19°C° 0.3 mm 2 m/s 748 mmHg 78%
    03:00 +18°C° 0.3 mm 2 m/s 747 mmHg 81%
    04:00 +18°C° 0.3 mm 2 m/s 747 mmHg 85%
    05:00 +18°C° 0.5 mm 2 m/s 747 mmHg 85%
    06:00 +19°C° 0.5 mm 3 m/s 747 mmHg 85%
    07:00 +20°C° 0.5 mm 3 m/s 747 mmHg 85%
    08:00 +22°C° 0.2 mm 3 m/s 748 mmHg 80%
    09:00 +24°C° 0.2 mm 3 m/s 748 mmHg 75%
    10:00 +26°C° 0.2 mm 4 m/s 749 mmHg 70%
    11:00 +26°C° 0.1 mm 4 m/s 749 mmHg 65%
    12:00 +27°C° 0.1 mm 4 m/s 749 mmHg 60%
    13:00 +27°C° 0.1 mm 5 m/s 749 mmHg 55%
    14:00 +27°C° 0.1 mm 5 m/s 749 mmHg 55%
    15:00 +27°C° 0.1 mm 5 m/s 749 mmHg 56%
    16:00 +26°C° 0.1 mm 5 m/s 749 mmHg 56%
    17:00 +25°C° 0.4 mm 4 m/s 750 mmHg 65%
    18:00 +22°C° 0.4 mm 4 m/s 750 mmHg 74%
    19:00 +20°C° 0.4 mm 3 m/s 750 mmHg 83%
    20:00 +19°C° 0 mm 3 m/s 750 mmHg 86%
    21:00 +18°C° 0 mm 3 m/s 751 mmHg 89%
    22:00 +17°C° 0 mm 2 m/s 751 mmHg 92%
    23:00 +17°C° 0 mm 3 m/s 751 mmHg 92%

    Depois de amanhã, 22 Julho, Segunda-feira

    Tempo Temperatura Precipitação Vento Pressão Humidade
    00:00 +16°C° 0 mm 3 m/s 751 mmHg 93%
    01:00 +15°C° 0 mm 4 m/s 751 mmHg 94%
    02:00 +15°C° 0 mm 4 m/s 752 mmHg 93%
    03:00 +15°C° 0 mm 4 m/s 752 mmHg 92%
    04:00 +17°C° 0 mm 4 m/s 752 mmHg 90%
    05:00 +17°C° 0 mm 4 m/s 752 mmHg 86%
    06:00 +17°C° 0 mm 4 m/s 752 mmHg 82%
    07:00 +17°C° 0 mm 5 m/s 753 mmHg 78%
    08:00 +19°C° 0 mm 5 m/s 753 mmHg 70%
    09:00 +20°C° 0 mm 5 m/s 753 mmHg 62%
    10:00 +22°C° 0 mm 5 m/s 754 mmHg 53%
    11:00 +22°C° 0 mm 5 m/s 754 mmHg 52%
    12:00 +23°C° 0 mm 5 m/s 754 mmHg 50%
    13:00 +23°C° 0 mm 5 m/s 754 mmHg 49%
    14:00 +23°C° 0 mm 5 m/s 754 mmHg 50%
    15:00 +23°C° 0 mm 5 m/s 754 mmHg 51%
    16:00 +23°C° 0 mm 5 m/s 754 mmHg 51%
    17:00 +22°C° 0 mm 4 m/s 754 mmHg 56%
    18:00 +20°C° 0 mm 3 m/s 754 mmHg 60%
    19:00 +19°C° 0 mm 3 m/s 754 mmHg 64%
    20:00 +18°C° 0 mm 2 m/s 754 mmHg 69%
    21:00 +17°C° 0 mm 2 m/s 754 mmHg 74%
    22:00 +16°C° 0 mm 2 m/s 754 mmHg 79%
    23:00 +17°C° 0 mm 2 m/s 754 mmHg 79%

    23 Julho, Terça-feira

    Tempo Temperatura Precipitação Vento Pressão Humidade
    00:00 +17°C° 0 mm 2 m/s 754 mmHg 79%
    01:00 +17°C° 0 mm 2 m/s 754 mmHg 79%
    02:00 +17°C° 0 mm 2 m/s 753 mmHg 79%
    03:00 +17°C° 0 mm 2 m/s 753 mmHg 79%
    04:00 +17°C° 0 mm 2 m/s 753 mmHg 80%
    05:00 +17°C° 0 mm 2 m/s 753 mmHg 80%
    06:00 +17°C° 0 mm 2 m/s 753 mmHg 80%
    07:00 +17°C° 0 mm 2 m/s 753 mmHg 81%
    08:00 +18°C° 0 mm 2 m/s 753 mmHg 79%
    09:00 +19°C° 0 mm 3 m/s 753 mmHg 78%
    10:00 +20°C° 0 mm 3 m/s 753 mmHg 76%
    11:00 +22°C° 0 mm 3 m/s 753 mmHg 72%
    12:00 +24°C° 0 mm 3 m/s 753 mmHg 67%
    13:00 +25°C° 0 mm 3 m/s 753 mmHg 62%
    14:00 +26°C° 0 mm 4 m/s 753 mmHg 61%
    15:00 +26°C° 0 mm 4 m/s 753 mmHg 60%
    16:00 +26°C° 0 mm 4 m/s 752 mmHg 59%
    17:00 +25°C° 0 mm 4 m/s 752 mmHg 64%
    18:00 +24°C° 0 mm 3 m/s 752 mmHg 68%
    19:00 +22°C° 0 mm 3 m/s 752 mmHg 73%
    20:00 +21°C° 0 mm 2 m/s 752 mmHg 79%
    21:00 +19°C° 0 mm 2 m/s 752 mmHg 86%
    22:00 +18°C° 0 mm 2 m/s 752 mmHg 92%
    23:00 +18°C° 0 mm 2 m/s 752 mmHg 93%

    24 Julho, Quarta-feira

    Tempo Temperatura Precipitação Vento Pressão Humidade
    00:00 +17°C° 0 mm 2 m/s 752 mmHg 95%
    01:00 +18°C° 0 mm 1 m/s 752 mmHg 96%
    02:00 +18°C° 0 mm 1 m/s 752 mmHg 96%
    03:00 +17°C° 0 mm 2 m/s 752 mmHg 96%
    04:00 +17°C° 0 mm 2 m/s 752 mmHg 97%
    05:00 +18°C° 0 mm 2 m/s 752 mmHg 91%
    06:00 +20°C° 0 mm 2 m/s 752 mmHg 84%
    07:00 +23°C° 0 mm 2 m/s 753 mmHg 78%
    08:00 +24°C° 0 mm 2 m/s 753 mmHg 71%
    09:00 +26°C° 0 mm 2 m/s 753 mmHg 63%
    10:00 +28°C° 0 mm 2 m/s 753 mmHg 55%
    11:00 +29°C° 0 mm 2 m/s 753 mmHg 50%
    12:00 +30°C° 0 mm 2 m/s 753 mmHg 45%
    13:00 +31°C° 0 mm 2 m/s 753 mmHg 40%
    14:00 +31°C° 0 mm 3 m/s 753 mmHg 40%
    15:00 +30°C° 0 mm 3 m/s 753 mmHg 41%
    16:00 +30°C° 0 mm 3 m/s 752 mmHg 41%
    17:00 +29°C° 0 mm 3 m/s 752 mmHg 48%
    18:00 +27°C° 0 mm 3 m/s 752 mmHg 54%
    19:00 +25°C° 0 mm 2 m/s 752 mmHg 61%
    20:00 +23°C° 0 mm 2 m/s 752 mmHg 67%
    21:00 +21°C° 0 mm 1 m/s 753 mmHg 74%
    22:00 +20°C° 0 mm 1 m/s 753 mmHg 81%
    23:00 +19°C° 0 mm 1 m/s 753 mmHg 83%

    25 Julho, Quinta-feira

    Tempo Temperatura Precipitação Vento Pressão Humidade
    00:00 +19°C° 0 mm 1 m/s 753 mmHg 85%
    01:00 +16°C° 0 mm 0 m/s 753 mmHg 87%
    02:00 +16°C° 0 mm 0 m/s 753 mmHg 87%
    03:00 +16°C° 0 mm 0 m/s 753 mmHg 88%
    04:00 +15°C° 0 mm 0 m/s 753 mmHg 88%
    05:00 +18°C° 0 mm 0 m/s 753 mmHg 80%
    06:00 +20°C° 0 mm 0 m/s 753 mmHg 71%
    07:00 +22°C° 0 mm 0 m/s 753 mmHg 62%
    08:00 +24°C° 0 mm 0 m/s 754 mmHg 54%
    09:00 +28°C° 0 mm 1 m/s 754 mmHg 45%
    10:00 +30°C° 0 mm 1 m/s 754 mmHg 36%
    11:00 +31°C° 0 mm 1 m/s 754 mmHg 35%
    12:00 +32°C° 0 mm 1 m/s 754 mmHg 33%
    13:00 +33°C° 0 mm 1 m/s 754 mmHg 32%
    14:00 +32°C° 0 mm 2 m/s 753 mmHg 32%
    15:00 +32°C° 0 mm 2 m/s 753 mmHg 33%
    16:00 +32°C° 0 mm 2 m/s 753 mmHg 34%
    17:00 +30°C° 0 mm 2 m/s 753 mmHg 42%
    18:00 +29°C° 0 mm 3 m/s 753 mmHg 50%
    19:00 +27°C° 0 mm 3 m/s 753 mmHg 59%
    20:00 +25°C° 0 mm 3 m/s 753 mmHg 65%
    21:00 +22°C° 0 mm 3 m/s 753 mmHg 71%
    22:00 +20°C° 0 mm 3 m/s 753 mmHg 77%
    23:00 +19°C° 0 mm 2 m/s 753 mmHg 81%
    Mostrar mais